Regional Weather Roundup
Issued by NWS State College, PA

Current Version | Previous Version | Text Only | Print | Product List | Glossary On
Versions: 1 2 3 4 5 6 7 8 9 10 11 12 13 14 15 16 17 18 19 20 21 22 23 24 25 26 27 28 29 30 31 32 33 34 35 36 37 38 39 40 41 42 43 44 45 46 47 48 49 50
000
ASUS41 KCTP 240710
RWRCTP

REGIONAL WEATHER ROUNDUP
NATIONAL WEATHER SERVICE STATE COLLEGE PA
300 AM EDT SAT JUN 24 2017

Note: "fair" indicates few or no clouds below 12,000 feet with no
significant weather and/or obstructions to visibility.

* = STATION THAT DOES NOT REPORT PRECIPITATION /E.G. RAIN...SNOW...ETC/
    THUNDER OR FOG.

PAZ002>004-007>009-013>016-020>023-029>032-240800-
WESTERN PENNSYLVANIA

CITY           SKY/WX    TMP DP  RH WIND       PRES   REMARKS
ERIE           CLOUDY    69  65  86 W6        29.69R
MEADVILLE      LGT RAIN  65  65 100 NW5       29.73S
FRANKLIN*      CLOUDY    63  61  94 W6        29.73S
NEW CASTLE     LGT RAIN  66  65  96 W6        29.74S
BEAVER COUNTY  NOT AVBL
BUTLER*        CLOUDY    66  64  94 W7        29.73R
PITTSBURGH INT LGT RAIN  68  67  96 W8        29.73S FOG
PITTSBURGH     CLOUDY    67  64  90 W8        29.73S
INDIANA*       CLOUDY    68  68 100 W7        29.74S
LATROBE        CLOUDY    66  66 100 SW10      29.74R
WASHINGTON CO* CLOUDY    66  64  94 SW7       29.77F
$$

PAZ004>006-010>012-017>019-024>028-033>037-041-042-045-046-049>053-240800-
CENTRAL PENNSYLVANIA

CITY           SKY/WX    TMP DP  RH WIND       PRES   REMARKS
BRADFORD       RAIN      65  65 100 W9        29.69S FOG
DUBOIS         CLOUDY    66  64  93 W10       29.69F
CLEARFIELD     CLOUDY    67  67 100 SW6       29.69F
JOHNSTOWN      CLOUDY    64  64 100 W10G23    29.73R
ALTOONA        LGT RAIN  67  66  97 W8        29.70S
STATE COLLEGE  LGT RAIN  66  66  98 S3        29.66F
WILLIAMSPORT   LGT RAIN  71  54  54 CALM      29.61F
SELINSGROVE    LGT RAIN  71  70  96 CALM      29.63F
FT INDIANTOWN  RAIN      69  69 100 SE5       29.63F
CAPITAL CITY   CLOUDY    72  68  87 W7        29.63F
HARRISBURG     LGT RAIN  71  70  96 NW5       29.62F FOG
YORK           HVY RAIN  71  71 100 N6        29.63F FOG
$$

PAZ038>040-043-044-047-048-054-055-060>062-067>071-240800-
EASTERN PENNSYLVANIA

CITY           SKY/WX    TMP DP  RH WIND       PRES   REMARKS
SCRANTON       LGT RAIN  72  70  93 SW9       29.63F
MOUNT POCONO   LGT RAIN  68  68 100 W9        29.68S
ALLENTOWN      HVY RAIN  72  69  90 W8        29.63F FOG
QUAKERTOWN*    CLOUDY    72  72 100 CALM      29.63F
READING        RAIN      71  71 100 S6        29.63F FOG
LANCASTER      LGT RAIN  73  72  96 CALM      29.63F
COATESVILLE    LGT RAIN  73  72  94 CALM      29.66S
POTTSTOWN      LGT RAIN  71  71 100 CALM      29.64F
BLUE BELL      CLOUDY    70  70 100 CALM      29.64F
DOYLESTOWN     MOCLDY    71  71 100 CALM      29.62F
WILLOW GROVE   NOT AVBL
NORTH PHILA    CLOUDY    77  71  82 CALM      29.63F
PHILADELPHIA   CLOUDY    83  70  64 SW14      29.62F
$$




USA.gov is the U.S. government's official web portal to all federal, state and local government web resources and services.